Miami, FL

12:33 PM EST on December 05, 2019 (GMT -0500)
Miami International

Weather History for KMIA - October, 2019

Change the Weather History Date:

Wednesday, October 9, 2019

  Actual Average Record
Temperature  
Mean Temperature 84 °F 81 °F  
Max Temperature 91 °F 87 °F 91 °F (1981)
Min Temperature 76 °F 75 °F 62 °F (1920)
Degree Days  
Heating Degree Days 0 0  
Month to date heating degree days 0 0  
Since 1 July heating degree days 0 0  
Cooling Degree Days 19 16  
Month to date cooling degree days 163 149  
Year to date cooling degree days 4254 3761  
Growing Degree Days 33 (Base 50)    
Moisture  
Dew Point 73 °F    
Average Humidity 77    
Maximum Humidity 94    
Minimum Humidity 59    
Precipitation  
Precipitation 0.08 in 0.26 in 4.00 in (1991)
Month to date precipitation 1.84 2.43  
Year to date precipitation 57.01 52.69  
Snow  
Snow 0.00 in - - ()
Month to date snowfall 0.0  
Since 1 July snowfall 0.0  
Since 1 September snowfall 0.0  
Snow Depth 0.00 in    
Sea Level Pressure  
Sea Level Pressure 29.93 in    
Wind  
Wind Speed 5 mph (SSW)    
Max Wind Speed 16 mph    
Max Gust Speed 23 mph    
Visibility 10 miles    
Events Rain , Thunderstorm    
T = Trace of Precipitation, MM = Missing Value Source: NWS Daily Summary

Daily Weather History Graph

Daily Weather History Graph

Search for Another Location

Airport or City:

Astronomy

Oct. 09, 2019 Rise Set
Actual Time 7:16 AM EDT 6:59 PM EDT
Civil Twilight 6:53 AM EDT 7:22 PM EDT
Nautical Twilight 6:27 AM EDT 7:49 PM EDT
Astronomical Twilight 6:00 AM EDT 8:15 PM EDT
Moon 5:00 PM EDT (10/9) 3:35 AM EDT (10/9)
Length of Visible Light 12h 28m
Length of Day
11h 42m
Waxing Gibbous, 85% of the Moon is Illuminated
Oct 9
Waxing Gibbous
Oct 13
Full
Oct 21
Last Quarter
Oct 27
New
Nov 4
First Quarter

Hourly Weather History & Observations

Time (EDT) Temp. Heat Index Dew Point Humidity Pressure Visibility Wind Dir Wind Speed Gust Speed Precip Events Conditions
12:53 AM 77.0 °F - 75.0 °F 94% 29.92 in 10.0 mi WSW 3.5 mph - N/A   Mostly Cloudy
1:53 AM 78.1 °F - 73.9 °F 87% 29.91 in 10.0 mi SSE 3.5 mph - N/A   Overcast
2:53 AM 77.0 °F - 73.9 °F 90% 29.90 in 10.0 mi SSW 4.6 mph - N/A   Mostly Cloudy
3:53 AM 78.1 °F - 73.9 °F 87% 29.90 in 10.0 mi Calm Calm - N/A   Mostly Cloudy
4:53 AM 77.0 °F - 73.9 °F 90% 29.91 in 10.0 mi Calm Calm - N/A   Mostly Cloudy
5:53 AM 78.1 °F - 73.9 °F 87% 29.93 in 10.0 mi SSW 4.6 mph - N/A   Overcast
6:53 AM 78.1 °F - 73.9 °F 87% 29.94 in 10.0 mi SW 3.5 mph - N/A   Overcast
8:53 AM 80.1 °F 84.5 °F 73.9 °F 81% 29.96 in 10.0 mi SSW 4.6 mph - N/A   Mostly Cloudy
9:53 AM 82.0 °F 87.9 °F 73.9 °F 76% 29.99 in 10.0 mi WSW 3.5 mph - N/A   Overcast
10:53 AM 84.0 °F 91.2 °F 73.9 °F 72% 29.98 in 10.0 mi Variable 3.5 mph - N/A   Mostly Cloudy
11:53 AM 87.1 °F 95.4 °F 73.9 °F 65% 29.98 in 10.0 mi South 5.8 mph - N/A   Mostly Cloudy
12:53 PM 89.1 °F 97.0 °F 73.0 °F 59% 29.96 in 10.0 mi SW 8.1 mph - N/A   Mostly Cloudy
1:53 PM 90.0 °F 96.9 °F 72.0 °F 55% 29.92 in 10.0 mi West 10.4 mph - 0.00 in Rain Light Rain
2:53 PM 88.0 °F 97.5 °F 75.0 °F 65% 29.90 in 10.0 mi SE 6.9 mph - 0.00 in   Mostly Cloudy
3:26 PM 84.9 °F 92.1 °F 73.9 °F 69% 29.89 in 10.0 mi South 10.4 mph - N/A Thunderstorm Thunderstorm
3:49 PM 82.4 °F 89.5 °F 75.2 °F 79% 29.90 in 10.0 mi SSE 8.1 mph - 0.03 in Thunderstorm Mostly Cloudy
3:53 PM 82.9 °F 90.2 °F 75.0 °F 77% 29.90 in 10.0 mi SE 6.9 mph - 0.03 in Thunderstorm Mostly Cloudy
4:00 PM 82.9 °F 88.8 °F 73.0 °F 72% 29.90 in 10.0 mi SSE 6.9 mph - N/A   Mostly Cloudy
4:53 PM 82.0 °F 86.3 °F 71.1 °F 69% 29.90 in 10.0 mi WNW 13.8 mph 20.7 mph N/A   Mostly Cloudy
5:53 PM 80.1 °F 84.5 °F 73.9 °F 81% 29.91 in 10.0 mi ESE 3.5 mph - 0.03 in   Mostly Cloudy
6:53 PM 80.1 °F 84.2 °F 73.0 °F 79% 29.92 in 10.0 mi Variable 6.9 mph - N/A   Mostly Cloudy
7:53 PM 80.1 °F 84.2 °F 73.0 °F 79% 29.94 in 10.0 mi WSW 4.6 mph - 0.01 in Rain Light Rain
8:53 PM 79.0 °F - 71.1 °F 77% 29.96 in 10.0 mi Variable 4.6 mph - 0.00 in   Mostly Cloudy
9:53 PM 78.1 °F - 72.0 °F 81% 29.97 in 10.0 mi Variable 4.6 mph - N/A   Mostly Cloudy
10:53 PM 79.0 °F - 73.0 °F 82% 29.97 in 10.0 mi Calm Calm - N/A   Mostly Cloudy
11:53 PM 78.1 °F - 72.0 °F 81% 29.99 in 10.0 mi WNW 4.6 mph - N/A   Overcast